• In Hungary
  • List of Countries
  • For 7 days
  • Water Temperature
  • Satellite Maps
  • Weather Map
  • News
  • Weather Widgets
  • user-avatar
    Login

    Hourly Weather Fudżajra

    Today, 21 November, Tuesday

    Time Temperature Precipitation Wind Pressure Humidity
    00:00 +20°C° 0 mm 2 mps 721 mmHg 39%
    01:00 +20°C° 0 mm 2 mps 721 mmHg 40%
    02:00 +19°C° 0 mm 2 mps 721 mmHg 40%
    03:00 +19°C° 0 mm 2 mps 720 mmHg 40%
    04:00 +18°C° 0 mm 2 mps 720 mmHg 41%
    05:00 +18°C° 0 mm 2 mps 720 mmHg 40%
    06:00 +18°C° 0 mm 2 mps 721 mmHg 40%
    07:00 +18°C° 0 mm 2 mps 721 mmHg 40%
    08:00 +21°C° 0 mm 2 mps 721 mmHg 34%
    09:00 +24°C° 0 mm 2 mps 722 mmHg 28%
    10:00 +27°C° 0 mm 2 mps 722 mmHg 23%
    11:00 +27°C° 0 mm 2 mps 722 mmHg 22%
    12:00 +28°C° 0 mm 2 mps 721 mmHg 20%
    13:00 +28°C° 0 mm 2 mps 721 mmHg 19%
    14:00 +28°C° 0 mm 3 mps 720 mmHg 20%
    15:00 +28°C° 0 mm 3 mps 720 mmHg 21%
    16:00 +28°C° 0 mm 3 mps 720 mmHg 22%
    17:00 +27°C° 0 mm 3 mps 720 mmHg 27%
    18:00 +25°C° 0 mm 3 mps 720 mmHg 33%
    19:00 +24°C° 0 mm 3 mps 720 mmHg 38%
    20:00 +23°C° 0 mm 2 mps 720 mmHg 41%
    21:00 +23°C° 0 mm 2 mps 720 mmHg 43%
    22:00 +21°C° 0 mm 2 mps 720 mmHg 46%
    23:00 +21°C° 0 mm 2 mps 719 mmHg 47%

    Tomorrow, 22 November, Wednesday

    Time Temperature Precipitation Wind Pressure Humidity
    00:00 +21°C° 0 mm 2 mps 719 mmHg 48%
    01:00 +20°C° 0 mm 2 mps 719 mmHg 49%
    02:00 +20°C° 0 mm 2 mps 719 mmHg 49%
    03:00 +20°C° 0 mm 2 mps 718 mmHg 48%
    04:00 +20°C° 0 mm 2 mps 718 mmHg 48%
    05:00 +20°C° 0 mm 2 mps 719 mmHg 47%
    06:00 +20°C° 0 mm 2 mps 719 mmHg 45%
    07:00 +20°C° 0 mm 2 mps 719 mmHg 44%
    08:00 +23°C° 0 mm 2 mps 720 mmHg 38%
    09:00 +25°C° 0 mm 2 mps 720 mmHg 32%
    10:00 +26°C° 0 mm 2 mps 721 mmHg 26%
    11:00 +27°C° 0 mm 2 mps 720 mmHg 24%
    12:00 +28°C° 0 mm 3 mps 720 mmHg 23%
    13:00 +29°C° 0 mm 3 mps 719 mmHg 21%
    14:00 +28°C° 0 mm 4 mps 719 mmHg 21%
    15:00 +28°C° 0 mm 4 mps 719 mmHg 22%
    16:00 +28°C° 0 mm 4 mps 718 mmHg 22%
    17:00 +27°C° 0 mm 4 mps 719 mmHg 27%
    18:00 +25°C° 0 mm 3 mps 719 mmHg 33%
    19:00 +24°C° 0 mm 3 mps 719 mmHg 38%
    20:00 +23°C° 0 mm 2 mps 719 mmHg 42%
    21:00 +23°C° 0 mm 2 mps 719 mmHg 45%
    22:00 +21°C° 0 mm 2 mps 719 mmHg 49%
    23:00 +21°C° 0 mm 2 mps 719 mmHg 53%

    Day after tomorrow, 23 November, Thursday

    Time Temperature Precipitation Wind Pressure Humidity
    00:00 +20°C° 0 mm 2 mps 718 mmHg 56%
    01:00 +20°C° 0 mm 2 mps 718 mmHg 59%
    02:00 +21°C° 0 mm 1 mps 718 mmHg 61%
    03:00 +20°C° 0 mm 1 mps 718 mmHg 62%
    04:00 +20°C° 0 mm 1 mps 717 mmHg 64%
    05:00 +20°C° 0 mm 1 mps 718 mmHg 63%
    06:00 +20°C° 0 mm 1 mps 718 mmHg 61%
    07:00 +20°C° 0 mm 1 mps 718 mmHg 60%
    08:00 +22°C° 0 mm 1 mps 719 mmHg 49%
    09:00 +24°C° 0 mm 1 mps 719 mmHg 38%
    10:00 +27°C° 0 mm 2 mps 720 mmHg 27%
    11:00 +28°C° 0 mm 2 mps 720 mmHg 25%
    12:00 +28°C° 0 mm 3 mps 719 mmHg 23%
    13:00 +29°C° 0 mm 3 mps 719 mmHg 20%
    14:00 +29°C° 0 mm 3 mps 718 mmHg 21%
    15:00 +29°C° 0 mm 4 mps 718 mmHg 22%
    16:00 +29°C° 0 mm 4 mps 718 mmHg 23%
    17:00 +27°C° 0 mm 4 mps 718 mmHg 28%
    18:00 +26°C° 0 mm 3 mps 718 mmHg 34%
    19:00 +24°C° 0 mm 2 mps 718 mmHg 40%
    20:00 +23°C° 0 mm 2 mps 719 mmHg 42%
    21:00 +23°C° 0 mm 2 mps 719 mmHg 44%
    22:00 +22°C° 0 mm 1 mps 719 mmHg 47%
    23:00 +22°C° 0 mm 1 mps 719 mmHg 48%

    24 November, Friday

    Time Temperature Precipitation Wind Pressure Humidity
    00:00 +21°C° 0 mm 1 mps 718 mmHg 50%
    01:00 +21°C° 0 mm 1 mps 718 mmHg 52%
    02:00 +21°C° 0 mm 1 mps 718 mmHg 52%
    03:00 +20°C° 0 mm 1 mps 718 mmHg 53%
    04:00 +20°C° 0 mm 1 mps 718 mmHg 54%
    05:00 +20°C° 0 mm 1 mps 718 mmHg 51%
    06:00 +20°C° 0 mm 1 mps 719 mmHg 49%
    07:00 +20°C° 0 mm 1 mps 719 mmHg 47%
    08:00 +22°C° 0 mm 1 mps 720 mmHg 41%
    09:00 +24°C° 0 mm 1 mps 721 mmHg 36%
    10:00 +27°C° 0 mm 1 mps 721 mmHg 31%
    11:00 +27°C° 0 mm 2 mps 721 mmHg 30%
    12:00 +28°C° 0 mm 3 mps 720 mmHg 29%
    13:00 +29°C° 0 mm 3 mps 720 mmHg 28%
    14:00 +29°C° 0 mm 4 mps 720 mmHg 29%
    15:00 +29°C° 0 mm 4 mps 719 mmHg 31%
    16:00 +28°C° 0 mm 5 mps 719 mmHg 33%
    17:00 +27°C° 0 mm 4 mps 720 mmHg 39%
    18:00 +26°C° 0 mm 3 mps 720 mmHg 45%
    19:00 +24°C° 0 mm 2 mps 720 mmHg 50%
    20:00 +24°C° 0 mm 2 mps 720 mmHg 52%
    21:00 +23°C° 0 mm 2 mps 721 mmHg 54%
    22:00 +22°C° 0 mm 1 mps 721 mmHg 56%
    23:00 +21°C° 0 mm 2 mps 721 mmHg 58%

    25 November, Saturday

    Time Temperature Precipitation Wind Pressure Humidity
    00:00 +21°C° 0 mm 2 mps 720 mmHg 60%
    01:00 +20°C° 0 mm 2 mps 720 mmHg 62%
    02:00 +20°C° 0 mm 2 mps 720 mmHg 65%
    03:00 +20°C° 0 mm 2 mps 720 mmHg 68%
    04:00 +20°C° 0 mm 3 mps 720 mmHg 71%
    05:00 +19°C° 0 mm 3 mps 720 mmHg 73%
    06:00 +19°C° 0 mm 3 mps 721 mmHg 75%
    07:00 +19°C° 0 mm 3 mps 721 mmHg 77%
    08:00 +21°C° 0 mm 3 mps 721 mmHg 65%
    09:00 +23°C° 0 mm 4 mps 722 mmHg 52%
    10:00 +26°C° 0 mm 4 mps 722 mmHg 39%
    11:00 +27°C° 0 mm 5 mps 722 mmHg 35%
    12:00 +28°C° 0 mm 6 mps 721 mmHg 32%
    13:00 +29°C° 0 mm 7 mps 721 mmHg 29%
    14:00 +28°C° 0 mm 7 mps 721 mmHg 30%
    15:00 +28°C° 0 mm 7 mps 721 mmHg 30%
    16:00 +27°C° 0 mm 7 mps 721 mmHg 31%
    17:00 +26°C° 0 mm 6 mps 721 mmHg 37%
    18:00 +23°C° 0 mm 5 mps 721 mmHg 42%
    19:00 +22°C° 0 mm 4 mps 721 mmHg 48%
    20:00 +21°C° 0 mm 4 mps 721 mmHg 51%
    21:00 +20°C° 0 mm 3 mps 722 mmHg 54%
    22:00 +20°C° 0 mm 3 mps 722 mmHg 56%
    23:00 +19°C° 0 mm 3 mps 721 mmHg 58%

    26 November, Sunday

    Time Temperature Precipitation Wind Pressure Humidity
    00:00 +19°C° 0 mm 3 mps 721 mmHg 60%
    01:00 +19°C° 0 mm 3 mps 721 mmHg 62%
    02:00 +18°C° 0 mm 3 mps 721 mmHg 63%
    03:00 +18°C° 0 mm 3 mps 721 mmHg 65%
    04:00 +18°C° 0 mm 3 mps 721 mmHg 66%
    05:00 +17°C° 0 mm 3 mps 721 mmHg 68%
    06:00 +17°C° 0 mm 3 mps 721 mmHg 69%
    07:00 +17°C° 0 mm 3 mps 722 mmHg 71%
    08:00 +19°C° 0 mm 3 mps 722 mmHg 62%
    09:00 +21°C° 0 mm 3 mps 722 mmHg 54%
    10:00 +24°C° 0 mm 3 mps 723 mmHg 45%
    11:00 +25°C° 0 mm 4 mps 722 mmHg 39%
    12:00 +26°C° 0 mm 4 mps 722 mmHg 34%
    13:00 +28°C° 0 mm 4 mps 721 mmHg 28%
    14:00 +27°C° 0 mm 4 mps 721 mmHg 28%
    15:00 +27°C° 0 mm 4 mps 721 mmHg 28%
    16:00 +27°C° 0 mm 5 mps 721 mmHg 28%
    17:00 +25°C° 0 mm 4 mps 721 mmHg 33%
    18:00 +24°C° 0 mm 3 mps 721 mmHg 39%
    19:00 +21°C° 0 mm 2 mps 721 mmHg 44%
    20:00 +20°C° 0 mm 2 mps 721 mmHg 47%
    21:00 +20°C° 0 mm 2 mps 721 mmHg 51%
    22:00 +19°C° 0 mm 2 mps 721 mmHg 54%
    23:00 +18°C° 0 mm 2 mps 721 mmHg 56%
    Show more